Theta_e
347 346 346 343 342 343 340 342 343 343 342 344 346 346 345 346 348 347 347 346 344 346 343 342 345 346 342 341 343 343 346 346 346 346 346 345 345 342 342 341 340 340 342 344 345 345 344 345 345 344 344 344 343 343 343 343 342 341 341 340 340 340 340 340 340 340 340 339 339 339 339 338 338 338 337 336 335 335 334 335 335 336 336 337 337
346 348 346 347 346 349 349 347 347 347 349 347 349 348 348 348 348 347 344 344 343 344 339 341 340 343 342 342 342 340 345 344 345 343 346 344 345 342 340 338 337 336 336 337 340 343 343 342 342 343 343 343 343 343 343 342 341 340 339 339 338 339 339 339 339 339 339 339 339 339 339 339 338 338 337 337 336 335 335 334 334 335 336 336 336
348 348 349 347 348 350 350 350 348 346 348 349 350 350 349 348 347 346 346 344 340 341 340 341 340 338 341 341 342 342 343 346 346 345 344 345 344 340 338 337 335 334 333 331 333 335 338 338 338 338 340 340 340 341 341 340 339 338 337 336 336 336 337 337 337 338 338 339 339 338 338 338 338 338 337 337 336 336 335 335 334 334 335 335 336
351 350 350 348 348 348 349 349 347 349 351 347 353 349 349 347 347 346 344 344 345 343 343 340 339 338 338 341 343 342 342 345 344 345 343 345 345 342 337 333 333 332 330 328 327 328 330 331 333 334 334 336 336 337 339 338 338 336 335 335 334 334 335 335 335 336 336 337 337 337 337 337 337 337 337 337 336 336 336 335 334 334 334 334 335
352 351 349 349 348 350 348 349 350 350 348 350 349 347 348 346 347 345 346 346 344 343 337 340 340 340 342 341 343 343 343 342 342 341 340 339 340 340 341 336 332 330 328 327 326 325 324 324 325 328 329 331 332 334 335 336 335 334 333 333 332 332 333 333 333 334 334 335 336 335 337 337 336 337 337 337 336 336 336 336 335 334 334 333 334
350 351 353 348 349 348 347 349 347 346 354 352 349 347 345 346 345 346 341 341 339 339 336 337 336 338 342 343 344 344 340 339 338 339 338 338 337 339 337 337 335 331 328 327 325 324 323 323 322 323 325 326 328 330 331 333 333 332 331 330 330 330 331 331 331 332 333 333 333 333 333 335 335 336 335 335 336 336 335 335 335 335 334 334 334
350 351 351 351 347 348 341 345 345 342 347 349 348 347 347 345 343 343 341 338 336 337 336 338 338 337 342 344 341 340 339 337 337 336 335 336 335 334 335 336 336 334 332 328 324 323 321 321 321 320 321 322 325 327 327 329 330 329 328 328 328 328 328 329 329 329 330 331 331 332 331 332 333 334 333 334 334 334 335 335 335 335 335 334 334
348 349 353 346 343 340 345 343 339 343 343 346 347 344 345 346 344 343 338 335 335 337 337 336 339 340 342 341 340 338 336 335 334 334 333 334 332 332 333 333 333 332 328 324 324 322 319 318 320 320 319 319 321 324 324 325 328 327 326 326 326 326 326 326 327 327 327 328 329 329 329 329 330 332 332 332 334 334 333 333 334 334 334 334 334
350 347 347 345 342 340 343 341 342 343 347 345 350 345 346 345 344 344 343 338 333 333 336 338 338 339 339 338 337 338 336 335 334 333 333 330 329 329 329 328 329 329 325 320 320 317 317 316 318 319 318 317 318 319 321 321 325 326 324 324 324 325 325 325 325 325 326 326 327 327 327 327 328 330 330 331 333 333 333 332 332 333 334 334 334
347 343 344 342 343 342 342 340 342 343 343 344 347 347 346 345 342 343 341 340 335 336 335 337 337 338 337 336 337 334 334 333 333 332 328 323 323 323 325 326 325 323 320 319 317 316 315 315 316 321 318 316 316 317 319 319 320 323 322 321 321 323 323 323 323 323 324 324 325 325 325 323 324 326 328 329 331 331 332 332 332 332 332 333 334
343 344 343 344 341 342 340 340 346 342 343 343 344 343 343 342 340 338 340 338 336 337 336 336 337 336 335 335 336 336 334 332 332 328 322 321 319 319 322 323 322 319 318 317 316 316 316 316 315 315 315 315 314 315 316 318 318 321 321 320 320 320 321 321 321 322 322 323 324 324 323 321 322 323 325 327 328 329 330 331 331 331 331 331 332
343 342 342 343 342 342 342 342 346 343 342 341 339 338 339 340 339 336 336 335 337 336 336 336 336 336 334 334 334 333 331 328 326 324 321 318 318 318 319 320 321 320 318 316 315 315 315 315 315 314 315 315 315 315 314 315 316 318 320 319 319 319 320 320 321 322 320 321 322 322 321 320 320 321 323 324 325 326 327 328 329 330 331 331 330
346 345 347 344 343 344 341 342 343 342 341 340 340 340 340 339 338 337 334 334 334 334 336 337 334 332 333 332 329 331 328 325 322 321 319 317 316 317 318 317 316 315 317 317 314 314 314 315 314 315 314 315 315 315 315 315 316 317 318 318 317 319 319 319 320 321 320 320 320 320 320 320 319 320 321 322 323 324 324 325 326 327 328 328 329
347 348 349 347 342 344 342 347 341 341 340 339 338 337 338 337 337 337 334 330 330 331 335 334 331 329 327 326 325 327 327 322 318 317 318 317 317 317 317 316 315 315 316 316 317 315 314 315 315 314 315 315 315 315 316 315 314 315 316 315 315 317 319 318 319 320 320 319 319 319 318 318 319 319 320 320 321 322 323 322 323 324 325 326 327
346 346 346 346 345 343 341 343 340 340 339 336 336 335 336 335 334 334 332 332 328 329 331 331 329 331 331 327 322 320 320 318 317 316 316 317 317 317 318 317 315 315 315 315 315 315 313 313 314 314 314 314 313 313 314 314 312 314 314 314 313 314 317 318 318 319 318 318 319 319 317 317 317 318 319 318 319 320 320 321 321 322 322 322 324
342 343 345 344 342 341 340 339 337 338 336 334 333 333 333 333 333 332 334 328 326 325 328 327 326 326 322 323 324 323 315 314 313 313 316 316 315 315 316 315 315 314 314 312 312 313 314 312 313 313 313 314 313 312 313 313 312 313 313 312 311 313 315 317 317 318 318 318 317 317 316 316 317 316 316 316 317 318 318 318 319 319 320 321 322
341 341 341 340 340 339 338 337 336 336 335 332 332 330 330 331 333 332 332 330 323 323 322 324 321 322 320 324 320 319 318 316 313 310 314 312 313 314 314 314 312 312 312 311 313 313 313 313 313 314 314 313 313 312 313 313 313 313 312 311 311 312 313 315 315 317 317 317 316 316 315 315 315 315 315 315 317 317 316 316 317 317 318 319 320
338 339 339 338 338 338 337 336 334 332 332 331 331 329 328 329 331 331 329 331 328 322 318 319 319 317 317 318 318 316 317 319 317 308 310 312 311 310 312 312 314 312 312 310 311 311 312 312 312 313 313 313 312 312 311 312 313 312 311 308 310 311 312 313 315 316 317 317 316 316 317 315 314 314 315 315 316 316 315 315 315 315 316 317 318
336 336 336 337 337 335 334 333 333 331 330 330 327 327 326 327 328 328 327 328 328 323 323 319 317 316 316 316 316 319 320 318 314 311 308 311 312 310 309 310 311 312 310 308 310 310 311 312 311 310 312 312 311 311 312 311 312 312 312 310 310 310 310 311 313 315 315 315 316 316 316 316 315 314 315 315 315 314 314 314 314 314 315 315 317
333 333 334 333 333 332 332 331 330 329 328 327 327 326 325 325 325 325 324 323 323 320 318 314 310 310 316 316 315 315 317 318 316 313 311 312 309 311 312 313 312 311 312 311 310 310 311 311 309 309 310 310 310 309 310 310 311 312 311 309 309 310 310 311 311 310 312 314 315 315 315 315 315 314 315 314 313 313 313 313 313 314 314 315 315
330 330 330 329 329 329 330 329 328 326 325 324 323 324 324 322 321 320 320 319 319 320 320 317 317 314 315 315 314 312 312 314 314 314 309 309 306 307 310 314 314 311 312 313 312 311 310 309 310 309 310 310 309 309 309 310 311 311 311 310 309 310 310 310 310 310 309 310 312 313 314 314 315 315 315 313 312 313 313 313 313 314 314 314 314
328 328 327 327 327 328 327 326 324 323 322 320 321 320 320 320 319 318 318 317 318 318 317 316 316 316 316 316 313 313 313 312 312 312 311 311 305 302 307 309 309 310 311 310 312 310 309 310 310 309 308 309 309 309 309 310 310 310 310 311 310 309 309 310 310 310 310 308 309 310 312 313 315 315 314 313 314 313 312 313 314 314 314 314 313
327 327 327 327 327 326 325 324 324 323 321 320 320 318 317 316 317 318 318 317 316 316 316 316 315 314 314 313 312 312 310 309 310 311 311 310 308 306 309 308 305 308 310 310 310 307 307 309 308 309 308 308 308 309 309 310 312 312 312 312 311 310 310 310 310 310 309 308 308 309 311 313 314 314 313 313 313 312 312 313 313 313 313 312 312
326 325 325 326 325 324 325 323 322 321 320 319 319 317 316 316 316 316 317 317 317 316 315 314 314 313 313 312 312 312 312 311 311 311 310 309 311 308 305 307 308 306 308 311 308 306 305 306 306 306 306 306 307 309 309 309 310 315 311 310 311 311 311 311 311 310 309 308 308 308 310 311 311 311 311 311 311 311 312 312 313 312 312 312 312
325 324 324 325 324 324 324 322 321 321 320 318 317 317 316 316 316 316 316 316 316 316 315 315 315 312 311 312 311 311 311 312 312 311 311 311 310 309 308 308 305 306 307 307 304 305 304 305 305 305 305 306 307 308 309 309 308 312 313 309 310 311 312 311 310 309 308 308 308 308 309 310 310 310 310 309 309 310 311 311 308 307 308 307 308
325 325 325 325 325 325 324 323 321 320 319 317 316 315 315 313 314 313 313 315 316 316 315 315 314 314 314 311 311 310 311 312 312 311 309 309 307 307 307 310 307 304 306 304 305 301 302 304 305 305 305 306 307 307 309 308 309 312 311 309 309 310 310 309 308 310 310 309 308 308 308 308 308 308 308 307 307 307 307 306 306 307 306 306 306
325 327 325 326 324 324 322 320 319 318 316 315 314 315 315 314 313 314 314 315 315 315 314 313 312 312 313 311 311 311 310 310 310 310 310 309 307 306 306 304 305 304 304 304 303 301 300 303 305 304 305 307 307 308 307 308 309 312 311 308 309 309 309 307 309 310 310 310 309 307 307 307 307 306 305 305 306 305 306 306 306 306 306 306 306
327 326 326 324 322 321 320 318 316 315 314 313 314 314 314 313 312 312 311 312 312 312 312 313 312 312 312 312 311 310 311 311 311 310 309 309 309 308 306 305 302 300 303 303 302 300 302 301 304 305 305 306 306 308 309 309 309 311 310 308 308 309 308 307 307 310 310 310 309 309 308 307 307 306 305 306 307 306 306 307 306 306 305 306 307
324 325 323 322 320 319 317 316 316 315 314 314 313 313 314 313 313 312 312 313 313 312 312 312 312 312 311 311 310 309 310 311 311 311 310 310 309 308 306 304 304 301 299 300 301 298 301 303 300 303 306 306 307 308 308 307 309 309 307 307 307 309 308 307 306 307 308 307 308 307 306 306 306 305 306 307 307 306 305 305 305 305 305 306 307
323 322 321 319 318 318 316 316 316 315 314 313 313 313 313 312 313 312 312 313 312 312 313 312 312 312 311 311 310 308 310 310 309 310 310 310 308 308 307 305 305 302 301 299 300 302 301 304 304 303 305 305 306 308 309 308 310 309 306 306 307 308 307 307 307 305 306 306 304 303 303 305 305 305 306 306 306 305 305 304 304 304 304 305 306
321 321 320 318 318 318 317 316 315 314 313 313 313 313 313 311 311 311 312 312 311 310 311 311 311 311 310 309 310 309 310 309 310 309 309 309 307 307 306 306 305 305 303 302 298 302 304 302 304 306 305 305 306 307 307 307 307 307 306 307 307 309 309 307 307 306 306 304 303 305 306 305 304 304 304 305 305 305 305 305 304 304 304 304 303
322 321 320 319 318 317 315 314 313 312 311 312 313 312 312 312 311 311 312 311 310 309 309 311 310 310 310 309 309 309 309 308 308 309 308 308 308 306 306 305 304 305 304 302 301 300 304 304 305 306 306 306 307 306 305 305 306 308 306 306 307 308 307 307 307 307 306 304 304 304 305 304 303 303 305 305 305 305 305 304 304 304 304 303 303
323 320 320 318 316 315 313 312 311 311 311 311 312 312 311 311 311 310 310 309 309 309 308 308 308 308 307 307 307 308 309 308 308 307 306 306 307 306 306 304 303 305 304 303 301 301 304 307 306 305 307 308 305 305 304 304 305 305 306 306 307 307 307 307 307 306 305 304 303 302 302 301 302 304 305 304 304 304 303 302 302 302 302 302 302
323 320 318 317 316 314 312 311 311 311 311 311 311 312 310 310 310 310 310 309 308 308 309 308 308 308 309 307 306 308 308 307 307 306 305 304 303 304 303 304 302 303 305 303 302 301 301 305 305 307 306 307 304 305 304 304 304 305 305 304 305 306 306 307 306 306 305 304 303 302 302 302 301 302 301 300 300 300 300 300 299 299 301 301 298
321 319 318 316 315 313 312 311 310 310 310 310 311 311 310 310 309 310 309 309 309 308 307 307 307 308 308 308 307 308 309 307 307 306 307 305 304 303 304 304 303 304 305 305 304 302 302 302 305 304 304 305 305 303 304 304 304 304 303 303 304 305 307 307 306 305 304 303 303 303 302 302 301 301 300 300 300 299 299 300 299 299 299 299 298
318 319 318 316 314 313 311 310 309 309 310 310 310 310 309 309 309 308 308 308 309 308 307 307 307 308 307 307 308 308 308 307 306 306 306 307 305 304 305 305 304 303 306 306 306 304 303 302 304 303 304 304 304 304 304 304 303 303 303 304 306 305 306 306 306 305 304 304 303 303 303 302 301 301 300 300 300 300 299 299 299 299 299 299 299
319 318 316 315 314 312 311 309 308 309 309 309 308 309 309 310 309 308 308 308 309 309 309 308 307 308 308 307 307 307 307 306 306 305 306 306 304 304 304 304 303 304 306 306 305 305 303 302 303 305 305 304 304 304 304 302 302 303 304 303 304 304 305 306 306 306 305 304 303 303 302 301 301 301 301 301 300 300 299 299 299 299 300 300 300
318 317 315 314 312 311 310 309 309 308 308 308 308 308 308 309 309 309 309 309 308 308 308 308 308 308 308 307 307 307 306 305 304 304 306 305 304 304 303 303 302 304 305 305 305 304 304 303 303 302 304 302 302 303 303 303 301 300 300 302 304 304 304 304 305 305 306 305 304 304 303 302 302 302 302 301 300 299 299 300 300 300 301 300 298
317 316 314 313 312 310 309 309 308 308 308 308 308 309 308 309 309 309 309 308 308 309 308 307 308 308 307 306 306 306 305 304 303 302 303 305 305 303 302 302 302 304 303 303 303 303 303 303 303 303 302 303 302 300 302 302 302 301 299 300 300 303 304 303 303 304 305 304 303 302 302 303 303 303 301 300 300 301 301 300 301 302 302 300 299
316 315 313 312 312 311 310 309 309 309 308 308 308 308 308 309 309 309 309 308 308 308 308 308 308 308 306 306 305 303 302 301 302 300 300 301 303 301 301 302 302 302 302 302 302 301 301 302 301 300 301 300 301 302 303 301 299 299 300 300 298 299 301 303 303 302 303 303 303 303 303 303 303 303 301 302 302 302 302 301 302 302 301 299 298
316 315 314 313 311 310 309 309 308 308 308 308 308 308 308 308 309 308 308 308 308 307 307 307 308 307 306 305 303 301 300 299 300 299 298 299 301 299 300 300 300 301 301 301 300 300 300 301 301 301 300 299 299 299 298 298 297 297 300 301 300 301 301 302 303 304 303 302 302 302 302 303 302 302 302 302 302 302 301 302 301 301 300 298 297
315 315 313 312 311 310 309 308 308 309 308 309 310 304 306 308 308 308 308 308 308 307 306 306 306 305 304 303 301 300 300 300 300 298 297 297 298 299 298 299 298 299 299 299 299 299 299 299 299 299 298 298 298 299 298 298 299 300 300 300 298 300 301 300 302 303 304 303 301 300 301 303 302 301 301 300 301 302 301 300 300 299 299 297 297
314 314 313 311 311 310 309 308 308 308 309 307 297 295 296 302 308 308 307 307 307 307 307 306 306 305 304 301 302 303 303 302 303 297 296 295 295 296 296 299 299 299 297 296 297 299 297 299 300 299 298 297 298 299 298 298 299 299 299 300 299 300 298 297 296 300 305 303 301 300 301 303 302 300 300 301 301 301 300 300 299 298 298 297 297
314 314 313 311 311 311 310 309 309 309 309 300 294 295 297 295 300 312 307 307 307 307 306 306 306 306 305 306 305 304 304 304 306 303 299 296 294 293 293 294 293 293 295 299 296 296 297 298 299 299 298 297 297 298 297 298 298 298 299 299 299 299 299 298 298 297 302 305 301 300 299 302 302 300 299 300 301 301 300 299 298 297 297 297 297
314 313 312 312 312 311 311 309 309 309 308 296 294 295 295 296 295 302 307 307 307 307 307 306 306 305 305 304 305 304 301 302 306 303 304 306 297 295 296 295 294 293 290 289 292 299 299 299 299 298 298 298 297 297 299 299 300 298 298 297 299 299 300 298 299 299 301 304 303 300 297 299 301 299 298 300 301 301 300 299 298 297 297 297 296
313 313 312 312 312 311 310 309 309 309 307 296 294 294 295 293 293 296 308 307 308 307 307 307 307 307 306 305 304 305 305 302 301 300 302 303 305 305 305 303 302 301 296 292 291 290 296 300 300 298 299 300 298 299 301 302 300 298 297 296 299 299 299 299 301 302 303 304 301 298 296 298 300 299 298 300 301 301 301 299 297 297 297 296 296
312 312 311 311 312 311 311 309 308 307 303 294 294 293 294 293 293 295 308 308 307 307 307 307 307 307 307 307 306 305 303 301 300 297 299 302 305 304 303 304 305 305 306 304 303 302 301 302 301 301 301 302 302 302 302 302 301 301 300 299 300 301 301 302 303 303 303 304 304 299 294 297 300 298 298 299 300 300 300 298 298 297 297 296 296
312 312 312 312 311 310 310 309 306 304 303 292 293 293 293 293 292 303 308 307 307 306 307 307 306 306 306 306 306 305 304 301 298 288 294 298 302 303 303 304 304 304 304 305 298 298 302 303 304 304 304 304 299 303 303 303 302 302 301 301 302 301 299 298 297 300 300 303 303 299 296 297 299 297 297 299 300 298 299 299 298 297 297 296 296
310 311 312 311 311 310 309 308 306 305 302 295 292 293 293 292 295 303 307 307 307 306 306 306 306 306 307 306 306 305 304 300 295 288 290 291 302 303 304 304 304 304 302 303 299 292 293 293 293 293 293 292 292 292 292 292 296 300 300 299 298 299 297 296 297 298 298 301 302 301 298 296 298 298 297 298 298 297 298 297 298 297 297 296 296
310 310 310 309 310 310 309 307 307 306 303 297 292 293 293 292 297 304 307 306 307 306 306 306 306 306 303 301 302 306 304 301 290 289 290 295 303 304 304 302 302 301 301 302 304 305 295 292 292 292 292 292 292 292 292 292 292 295 302 298 300 299 297 297 295 297 299 300 300 301 297 296 298 298 296 297 298 298 298 297 297 297 297 296 296
310 310 309 309 309 309 308 308 307 309 307 300 292 293 292 293 297 303 306 307 307 305 305 303 307 304 300 299 301 300 303 298 285 290 289 294 304 304 303 302 300 300 299 300 302 303 304 306 306 306 306 301 308 308 305 298 296 300 304 303 302 299 297 297 297 297 296 298 301 303 297 296 297 298 296 294 292 295 298 298 297 297 297 296 296
Wind_Speed
5 5 5 4 4 4 5 5 5 4 4 3 2 2 2 2 1 2 2 2 2 1 1 1 1 1 1 1 2 2 3 3 4 8 6 6 8 12 16 16 16 16 17 18 17 16 15 16 16 16 17 16 15 15 14 15 15 15 15 14 14 13 12 13 13 13 13 13 14 13 14 15 14 14 13 14 13 12 11 12 12 12 11 11 11
4 4 5 5 4 4 3 4 3 3 3 3 3 3 2 2 2 2 1 2 2 2 2 2 1 1 2 2 2 3 2 3 3 6 6 8 8 9 16 16 16 16 17 18 18 18 19 20 19 20 20 19 17 17 18 18 18 19 19 19 18 17 16 15 16 16 15 14 14 14 14 14 16 16 15 14 14 13 12 12 11 12 12 12 11
4 4 4 5 5 5 5 5 4 4 4 4 3 2 1 1 1 1 1 1 1 0 2 2 2 2 2 3 3 2 3 3 4 5 7 6 7 8 11 15 15 16 17 18 18 18 19 19 20 19 19 19 18 19 18 18 18 19 20 19 19 18 18 17 17 17 17 17 16 15 14 15 16 16 17 16 15 15 13 12 12 13 13 13 13
4 4 4 5 6 5 5 4 5 1 2 4 3 1 3 2 2 2 1 2 1 2 2 2 3 3 3 3 3 3 3 4 5 5 5 5 7 6 8 10 15 17 17 18 18 19 18 18 17 17 18 19 18 18 17 17 17 18 19 20 19 19 20 19 18 19 19 18 17 17 17 16 16 16 16 16 17 15 14 15 13 12 13 14 13
3 5 4 4 5 3 5 3 1 3 0 4 3 3 2 3 3 1 2 1 1 2 3 1 2 2 3 4 3 4 5 5 5 5 5 5 4 4 5 7 10 16 17 17 17 17 16 17 17 17 17 17 18 17 18 18 17 18 19 19 20 19 19 20 20 19 19 20 18 18 18 17 17 18 18 17 15 16 16 15 13 12 13 13 14
4 4 6 5 1 5 3 6 7 4 2 1 3 3 2 2 1 2 2 1 1 1 2 2 3 2 4 4 4 5 5 5 5 5 6 6 6 6 4 4 5 7 9 15 16 15 14 14 15 16 16 16 16 16 17 18 18 19 20 20 20 20 19 20 20 20 21 20 21 19 19 19 18 17 18 17 18 17 15 18 15 13 13 13 13
4 2 4 2 4 4 4 3 2 5 4 1 5 3 2 1 2 2 2 1 1 2 2 3 3 4 3 3 5 5 4 5 5 5 5 6 6 7 7 6 6 6 2 6 13 14 13 11 12 13 15 15 15 16 16 17 19 19 19 20 20 21 20 19 20 20 20 21 21 21 20 20 19 19 19 17 18 20 18 15 18 17 13 14 14
4 2 2 5 7 7 4 3 3 6 3 4 5 3 3 2 3 3 2 3 2 2 3 3 3 4 4 4 4 4 5 5 5 6 8 6 6 6 6 6 6 6 7 7 6 9 13 10 9 11 14 14 14 14 16 16 17 19 19 19 19 20 20 20 20 20 21 21 21 21 21 21 21 20 20 19 18 18 18 15 17 21 19 15 14
3 3 7 4 4 1 2 3 2 6 2 5 1 3 2 3 3 3 3 2 3 3 2 3 3 4 4 4 5 5 5 4 5 5 5 6 6 6 6 7 7 8 6 7 7 7 9 10 7 9 11 13 12 13 14 16 16 17 18 19 19 19 19 19 20 20 20 20 21 21 21 21 22 21 21 20 19 19 18 17 19 19 17 17 15
4 9 3 5 3 3 2 4 5 2 6 2 3 4 4 3 3 3 4 4 4 4 3 3 3 5 5 5 5 5 5 4 4 5 6 6 6 5 6 6 6 7 7 6 7 7 7 8 7 10 12 11 10 11 12 14 15 15 17 18 18 18 19 19 19 19 19 20 20 20 20 20 20 21 21 21 20 20 18 18 17 18 18 16 16
8 2 3 2 3 1 3 5 1 5 5 2 4 4 4 4 3 3 3 3 4 4 3 2 3 4 5 6 5 5 5 6 6 6 6 6 5 6 5 5 5 7 6 6 6 6 6 6 6 7 5 10 8 9 10 12 14 14 16 18 18 18 18 19 19 19 19 18 19 19 19 19 20 20 20 21 21 21 20 19 17 17 18 18 19
3 1 2 3 3 2 0 2 4 3 1 4 4 5 4 4 4 5 4 1 4 4 4 3 6 6 8 7 6 6 8 8 7 6 6 6 5 6 6 5 5 5 5 5 6 6 6 6 7 6 7 8 8 8 9 9 14 13 14 17 18 18 18 18 19 19 19 19 19 19 20 20 19 21 21 21 21 21 22 21 20 20 18 17 17
4 2 2 3 1 1 2 3 4 2 4 5 6 5 4 2 2 2 3 3 4 4 4 5 3 5 6 8 7 7 8 7 6 6 6 5 6 6 6 6 6 5 4 3 5 6 5 6 6 6 7 7 7 9 8 8 13 13 12 16 19 19 19 18 19 19 19 20 20 20 20 21 20 21 21 22 21 21 21 21 21 21 20 19 18
3 3 3 2 3 4 2 1 1 4 5 5 4 4 4 3 2 0 3 3 4 4 5 5 4 6 7 6 6 6 6 7 6 6 5 6 6 5 5 6 6 5 5 3 4 5 5 5 5 6 7 7 7 7 6 7 9 12 11 14 18 18 18 18 19 19 20 20 20 20 20 21 20 20 21 21 21 21 20 19 20 21 20 21 21
3 3 2 2 3 4 3 4 4 5 4 4 4 4 3 3 2 3 3 4 3 5 6 6 5 2 4 8 7 7 5 5 5 6 6 6 5 5 4 5 6 5 5 4 4 4 5 5 5 7 7 7 7 7 6 6 9 11 11 14 19 19 18 18 18 19 20 20 21 20 21 21 21 22 21 22 21 21 20 19 19 20 21 21 21
4 3 3 4 5 5 4 5 6 5 4 4 4 4 4 4 5 1 6 3 4 5 6 7 6 5 5 6 7 6 6 5 4 4 5 6 6 5 4 4 4 4 4 5 4 4 4 5 6 6 7 7 7 7 7 6 9 10 10 13 19 20 19 19 18 19 19 20 21 21 22 21 21 22 22 22 22 21 20 20 20 21 21 22 21
5 5 5 5 5 5 5 5 5 5 4 4 3 3 3 3 3 2 4 3 4 3 5 6 8 6 5 4 4 7 4 8 6 4 4 5 6 6 4 4 4 4 3 4 4 5 4 5 6 5 6 7 7 7 7 7 7 7 8 12 19 19 19 19 19 19 20 21 21 21 22 22 22 22 22 22 21 21 21 21 21 22 22 21 21
6 5 6 5 5 6 6 5 5 5 3 2 2 2 4 5 4 4 3 4 2 3 4 5 6 7 7 6 5 5 3 9 7 4 4 4 5 5 4 3 2 2 2 3 5 5 5 4 6 5 5 6 6 6 7 6 6 7 7 10 21 20 19 20 20 20 20 21 22 22 22 22 22 22 22 22 22 21 21 22 22 22 22 22 22
5 5 5 4 5 7 6 5 4 3 3 3 3 4 5 6 5 5 5 3 2 3 2 4 5 6 6 6 7 6 5 3 2 8 6 4 4 5 4 4 3 3 3 4 5 4 5 6 5 6 5 5 6 6 6 7 8 8 9 15 19 19 19 20 20 20 21 21 22 22 23 23 22 22 23 23 22 22 22 21 22 22 22 22 22
5 5 5 6 7 8 6 4 3 3 3 4 4 5 5 6 6 6 6 6 6 4 4 5 5 5 5 6 5 6 7 6 5 4 4 4 5 3 3 3 2 3 4 4 4 4 3 5 5 6 5 5 5 6 6 7 7 8 6 12 17 18 20 20 19 19 19 21 22 23 24 23 23 23 23 23 22 23 22 22 22 22 22 22 22
5 5 5 7 8 7 6 4 3 4 4 5 6 7 8 7 7 6 6 6 6 5 5 5 5 5 4 5 6 6 6 6 6 5 6 3 3 1 4 4 1 1 2 3 4 3 3 3 3 5 5 5 6 6 7 7 7 7 8 11 14 17 18 19 17 15 15 18 21 23 24 24 24 23 22 23 23 23 23 23 22 22 22 22 21
5 5 7 8 7 6 6 6 6 6 5 6 8 8 7 7 7 7 7 7 6 6 7 6 6 6 6 5 5 4 4 5 6 5 4 5 3 2 2 2 4 3 1 3 4 3 2 3 4 5 6 6 6 7 7 7 7 7 8 10 14 17 19 19 15 13 12 15 20 22 23 23 23 23 23 23 23 23 23 22 22 21 21 21 21
5 6 7 6 6 6 5 5 5 5 5 6 6 6 6 6 7 8 8 8 7 8 8 8 7 7 7 6 6 6 5 6 5 5 4 4 2 1 1 0 2 4 3 1 4 2 4 3 5 4 5 6 7 7 7 8 8 7 5 10 14 18 19 17 13 11 11 15 18 22 22 22 22 22 22 23 24 24 23 22 22 22 22 22 22
5 5 5 6 5 5 5 5 5 5 6 5 5 6 6 5 6 6 7 8 8 7 8 8 8 6 7 6 6 6 6 5 4 5 5 4 5 2 3 4 1 3 3 4 2 2 6 5 5 5 7 7 7 7 8 8 9 8 8 13 16 17 17 14 11 10 10 13 16 20 21 21 21 20 21 22 23 24 23 23 23 23 23 22 22
5 5 5 6 5 5 5 5 5 6 7 6 6 6 6 7 7 8 8 9 8 8 8 8 7 6 6 6 6 6 5 5 5 6 5 4 6 5 3 3 4 2 2 3 4 4 6 5 6 6 8 8 8 8 9 9 9 9 8 14 17 14 10 10 11 10 12 14 15 17 18 19 20 20 20 21 21 22 23 24 24 23 23 22 22
6 6 5 6 5 5 6 6 7 8 7 7 6 6 7 7 8 8 8 8 8 9 8 7 7 8 6 6 6 5 6 6 6 6 7 7 6 6 6 1 3 4 2 4 5 6 7 6 6 7 8 9 9 9 9 10 10 10 13 14 14 13 10 6 12 16 17 16 14 14 16 16 17 18 19 18 19 21 25 25 25 24 23 22 22
6 7 7 6 7 7 7 7 8 7 7 6 6 7 7 7 8 8 8 7 8 7 7 8 8 8 7 5 5 6 6 6 6 7 6 6 6 6 7 6 1 3 4 5 5 7 9 7 7 8 9 8 9 9 10 11 11 11 15 14 12 15 6 17 20 21 18 16 14 14 14 13 14 15 16 17 19 25 27 25 25 24 24 23 23
5 6 7 7 7 8 7 8 8 7 7 7 7 7 7 7 7 7 8 7 8 9 8 8 8 7 6 6 6 6 6 6 6 6 5 5 6 6 7 6 6 4 4 3 5 6 9 8 7 8 10 9 9 9 12 12 10 12 16 13 12 12 13 19 19 17 15 14 14 13 13 13 13 14 16 18 25 25 26 24 24 24 24 24 24
6 7 8 8 8 7 8 8 8 7 7 7 8 8 8 7 7 8 8 7 7 8 7 6 6 6 6 6 6 5 6 5 5 5 5 5 5 5 6 7 6 5 5 5 5 7 8 9 8 8 10 11 10 10 11 11 11 13 14 13 13 11 15 21 21 13 11 11 11 10 10 12 13 15 18 21 24 25 24 23 23 24 24 25 24
7 7 8 9 8 9 8 8 7 7 7 7 8 8 8 7 8 8 7 7 7 6 6 5 5 5 5 5 5 5 5 4 5 5 4 4 4 5 5 5 6 6 5 6 5 6 8 8 8 9 10 11 11 10 10 11 12 14 14 15 13 12 15 21 12 10 11 9 7 7 10 11 12 15 17 19 20 22 24 24 25 25 26 25 24
8 9 9 9 8 8 8 8 7 8 8 8 8 7 8 8 7 7 7 6 7 7 6 5 5 5 5 5 4 4 4 4 4 4 4 4 4 3 4 4 5 5 5 5 5 5 7 8 8 9 10 12 11 10 10 11 12 14 14 14 14 14 15 16 15 12 9 8 9 12 11 12 13 15 17 18 20 22 23 23 23 22 23 23 22
8 9 9 9 9 9 8 8 8 8 8 7 8 8 7 7 7 6 7 7 7 7 6 5 4 5 5 4 4 3 2 2 3 2 2 3 3 4 3 4 5 5 5 5 5 6 6 7 8 9 11 11 12 11 12 11 12 15 15 14 15 15 12 13 18 17 9 11 18 19 14 12 12 18 17 19 20 21 22 22 20 20 20 20 19
9 9 9 10 9 9 9 8 8 8 8 8 7 7 7 7 7 7 7 7 7 6 6 6 5 5 5 6 5 4 3 3 2 2 2 2 2 3 4 4 5 5 6 6 6 7 7 7 7 8 9 10 11 12 13 13 14 14 15 14 14 13 12 11 14 16 17 21 20 16 14 13 14 19 19 19 18 18 18 17 16 17 18 18 17
9 9 10 9 9 9 9 9 9 9 8 8 8 7 7 8 7 6 7 7 7 6 5 6 5 4 4 6 6 5 5 4 4 4 4 4 4 4 4 5 5 5 5 6 6 7 9 8 8 8 8 10 10 11 12 13 14 15 15 14 13 13 12 12 12 12 15 17 16 14 14 17 18 19 18 17 16 15 15 15 15 16 16 16 15
9 9 9 9 10 9 9 9 9 9 9 8 7 8 8 8 8 7 6 7 7 6 7 6 6 5 5 5 5 4 2 3 3 4 3 4 5 5 5 4 4 5 5 5 6 7 9 8 8 9 9 9 10 12 13 12 14 15 16 14 14 13 11 11 12 12 15 16 13 15 18 20 21 19 17 17 15 13 13 14 15 15 15 14 15
10 9 10 10 10 9 9 9 9 9 9 8 8 8 9 8 8 8 7 7 6 6 6 6 6 5 5 5 4 4 3 4 3 3 4 3 3 5 5 4 4 5 5 5 5 6 7 9 8 9 9 9 9 11 11 11 13 14 14 13 12 13 13 12 13 13 14 15 16 17 19 21 22 22 21 16 15 16 14 14 13 12 12 12 13
10 10 10 10 9 9 8 9 9 9 9 9 9 9 8 7 8 8 7 7 6 6 5 5 5 5 4 5 5 4 4 3 3 4 4 4 4 5 5 5 5 5 5 5 6 6 7 8 8 7 8 8 9 10 11 12 12 12 13 14 14 13 13 13 12 11 14 14 15 18 19 20 21 23 20 20 22 18 13 11 11 12 12 11 10
10 10 10 9 9 10 9 10 9 9 9 9 9 9 9 8 7 7 7 6 6 6 6 5 5 4 4 5 5 5 4 4 4 4 4 5 4 5 6 6 6 5 6 6 6 6 7 7 7 8 8 9 9 10 12 13 13 13 13 13 14 13 13 13 13 11 10 11 12 13 15 18 22 21 21 21 18 12 13 15 15 14 11 8 10
11 10 10 10 9 9 10 9 10 9 9 9 9 9 9 8 8 8 7 7 6 5 5 6 5 5 5 5 5 5 5 5 4 5 5 4 3 5 5 6 6 6 6 6 6 7 7 7 7 8 8 8 9 11 11 13 13 13 14 14 13 12 12 13 14 12 11 12 14 15 15 16 18 18 20 20 18 19 19 14 13 9 6 10 12
10 11 11 11 9 9 9 9 9 9 9 9 9 9 9 8 8 8 7 7 6 6 6 6 5 5 5 5 6 6 6 5 5 5 6 5 4 4 5 5 6 6 6 6 6 7 7 7 7 8 8 9 9 9 10 11 12 12 11 13 15 14 14 13 13 14 13 13 14 14 16 18 19 20 20 19 20 20 20 16 15 13 16 15 15
9 10 10 11 11 10 10 9 10 9 8 8 8 8 9 9 8 8 8 7 7 6 6 6 5 5 5 6 6 7 6 5 4 4 4 4 4 4 5 6 7 6 6 6 6 7 7 7 7 8 8 9 10 11 12 12 13 14 14 13 13 13 13 14 13 12 12 14 14 15 15 14 17 20 19 17 17 18 18 18 16 15 15 14 13
10 10 11 11 10 11 11 11 10 8 8 6 6 7 6 8 8 7 7 7 7 7 6 6 6 6 6 6 6 7 6 6 6 5 5 2 2 3 4 5 6 6 6 6 6 6 7 7 7 8 9 9 10 11 11 12 13 13 14 13 13 14 13 13 12 11 12 14 15 15 16 17 18 18 16 17 17 16 15 16 11 12 15 16 15
10 10 10 11 10 10 11 10 10 8 7 6 10 10 8 6 8 7 7 7 6 6 6 6 6 6 7 8 6 7 8 7 6 8 8 7 7 6 6 5 4 4 6 6 6 6 7 7 7 8 8 10 11 11 11 12 13 14 13 13 13 13 14 15 16 12 10 15 14 15 16 15 14 18 20 18 17 18 17 15 17 18 16 16 16
10 10 10 11 10 10 9 10 9 8 7 10 11 8 5 6 6 3 7 6 6 6 6 6 6 5 6 5 4 3 2 1 3 8 8 9 10 9 8 8 7 7 6 4 5 6 7 7 7 8 9 9 11 10 11 12 13 13 13 13 13 14 14 15 14 15 14 14 14 14 15 13 14 16 17 16 17 16 15 16 19 16 17 19 18
10 11 11 11 10 10 9 10 9 8 7 10 10 7 4 3 2 4 7 6 7 6 6 6 6 6 6 5 5 4 4 4 5 1 2 8 10 10 10 9 9 9 9 9 8 5 6 7 6 8 8 9 10 10 11 12 13 14 14 13 13 14 13 14 14 14 15 13 12 12 15 15 16 16 18 17 18 17 19 19 18 17 19 19 18
10 10 11 11 10 10 10 9 8 7 7 8 11 7 3 3 3 6 4 7 6 6 5 5 4 5 6 6 6 5 4 3 3 3 3 3 2 4 6 8 8 10 10 11 11 12 10 6 7 7 8 8 8 10 11 11 13 13 14 14 15 15 14 15 15 13 13 12 12 14 14 15 15 15 16 18 17 17 16 18 20 20 20 21 19
10 10 11 11 10 9 9 9 7 7 8 13 12 9 5 6 3 4 3 5 5 5 5 5 5 5 3 2 3 4 4 3 4 4 5 4 4 2 2 2 2 2 8 6 3 4 3 4 6 6 7 7 8 10 10 10 11 11 13 15 15 14 14 14 11 11 12 11 13 13 14 14 15 18 18 16 16 17 15 19 21 21 20 21 20
9 10 10 10 10 10 9 9 9 8 7 12 11 10 8 7 4 4 4 6 6 6 6 5 5 5 5 4 4 4 4 4 4 1 3 5 6 3 2 2 2 1 1 1 6 8 7 5 5 7 7 9 11 11 11 10 10 11 12 12 11 12 13 13 13 12 12 12 12 15 14 14 13 16 17 17 17 15 17 17 21 23 23 22 21
10 10 10 10 9 9 10 9 9 8 9 10 12 11 9 9 4 5 5 6 6 6 6 6 6 5 6 4 3 5 5 4 3 3 4 5 7 2 2 2 1 2 4 2 8 11 10 12 14 15 16 17 17 18 17 17 12 10 10 11 12 13 13 13 12 13 13 12 10 15 14 13 13 12 14 15 16 14 13 15 18 21 24 23 22
10 10 10 9 9 10 10 10 10 9 10 11 13 12 11 10 7 7 6 7 7 6 6 6 6 6 5 6 8 2 6 5 4 2 5 7 5 1 2 2 2 3 4 6 5 3 12 14 16 16 17 16 16 16 16 15 16 10 7 12 13 12 13 12 13 13 13 11 11 15 15 14 14 11 11 14 15 11 12 15 19 21 24 23 23
10 10 10 10 10 9 10 10 10 10 11 12 14 13 12 11 9 8 7 6 7 7 7 6 5 6 6 4 4 6 6 6 3 3 5 6 4 1 3 2 3 4 5 8 7 8 8 8 8 7 6 6 5 6 8 9 7 5 9 11 11 11 12 13 13 13 12 10 11 16 15 14 15 13 15 15 15 12 10 17 16 14 17 19 19
Wind_Direction
178 184 197 187 191 193 197 187 195 177 177 195 188 162 199 210 177 260 230 264 229 229 313 273 243 195 344 35 16 346 28 339 1 84 92 91 85 74 71 64 54 48 44 41 44 45 46 46 43 40 37 34 35 33 31 31 28 24 23 21 16 6 358 350 341 332 322 316 312 308 298 287 283 282 283 285 284 280 279 278 278 278 277 283 286
190 191 188 187 194 192 210 189 217 158 189 172 174 205 181 182 204 213 236 199 243 78 289 284 233 229 63 354 41 10 17 16 25 74 111 99 92 89 79 72 64 57 48 43 38 36 41 39 34 32 30 26 32 36 37 38 37 35 34 32 27 23 21 16 9 0 350 334 318 308 305 299 290 287 284 281 279 276 266 267 271 273 275 276 277
204 205 180 194 192 198 196 191 208 191 195 182 173 170 187 185 221 226 270 338 358 347 312 335 347 335 53 48 18 26 38 27 51 55 108 92 98 99 90 85 82 73 62 53 44 36 38 34 35 29 24 22 25 27 31 34 36 34 32 29 26 22 23 20 18 15 10 4 357 343 326 313 307 301 292 283 279 277 270 264 266 269 271 271 270
236 219 207 199 204 201 194 206 202 90 13 231 118 224 185 139 95 131 73 293 338 8 304 342 341 2 13 55 32 29 53 58 48 53 70 122 131 107 106 100 85 80 74 65 54 48 43 39 38 32 28 25 22 23 25 28 32 30 30 26 22 18 19 17 14 14 13 9 9 10 8 6 1 351 334 302 281 270 265 267 261 264 264 266 268
210 234 227 212 222 191 217 188 43 315 226 355 96 193 143 161 154 192 215 90 328 15 323 18 346 40 10 49 49 62 57 50 51 36 36 43 55 78 97 103 98 89 80 73 67 57 46 43 40 35 31 27 26 21 19 21 25 25 27 21 21 17 15 14 12 12 9 8 8 8 4 3 3 0 1 359 329 287 274 263 253 255 258 261 264
214 214 242 244 185 236 19 18 9 330 298 337 323 206 148 98 160 196 62 304 197 31 317 16 11 38 38 42 64 63 58 65 63 53 47 43 39 21 44 57 92 99 90 83 77 66 53 44 42 39 33 27 26 27 21 21 24 21 19 16 15 14 11 10 11 10 7 7 4 4 4 1 359 357 357 358 2 345 294 274 262 250 248 252 257
234 240 246 305 302 53 54 4 312 297 286 305 239 122 124 115 45 11 41 273 327 55 333 58 11 40 49 59 65 65 73 60 34 59 61 51 36 40 21 30 26 37 68 108 86 68 59 48 45 46 40 29 26 25 25 20 19 25 23 15 10 9 8 6 5 7 5 5 2 1 3 360 356 354 354 355 0 1 345 297 287 267 246 243 245
252 260 14 341 23 39 6 4 22 304 278 252 247 128 83 54 55 27 3 359 311 63 23 58 67 64 70 72 70 72 59 62 60 54 25 36 45 40 43 39 14 38 24 15 25 79 62 37 64 54 49 39 25 25 26 23 22 24 20 18 12 9 6 2 1 2 1 2 0 358 2 358 355 354 354 353 352 354 356 338 289 279 268 251 244
342 317 39 5 54 131 357 321 290 273 313 250 190 64 92 84 71 40 19 342 356 9 51 67 66 83 73 71 77 62 53 50 53 47 57 41 37 45 46 27 32 41 36 18 20 2 29 22 67 67 67 50 30 27 29 25 22 22 20 16 12 11 6 3 359 357 359 0 359 356 358 356 355 353 352 348 347 348 348 350 1 350 307 267 256
7 48 24 33 11 20 43 297 270 266 255 346 27 69 66 38 43 44 30 13 19 9 10 54 74 86 81 72 59 69 71 72 57 50 48 38 35 42 42 44 34 36 29 28 19 16 6 4 8 115 79 58 39 28 29 29 23 20 19 14 9 8 5 2 359 357 357 355 355 353 354 351 349 350 351 346 346 347 347 349 355 350 353 335 283
49 28 46 68 13 65 237 268 196 246 266 139 80 68 53 43 23 40 47 48 21 18 0 7 108 108 93 80 72 66 72 48 48 62 57 46 35 35 34 45 58 37 27 29 23 14 11 5 358 352 30 56 37 31 27 37 26 19 19 13 9 6 3 360 357 355 354 353 352 350 352 349 347 347 346 345 346 345 347 350 349 349 347 347 346
111 46 76 101 135 208 91 283 233 209 25 58 39 49 40 53 46 2 12 37 69 3 7 331 109 106 99 89 76 76 57 54 50 47 54 49 40 34 32 32 35 51 48 29 27 15 14 10 0 3 352 4 25 24 23 35 32 15 14 12 7 4 1 359 356 354 352 352 350 349 349 347 346 345 343 343 343 344 345 348 348 345 343 344 343
94 135 125 121 154 78 101 234 286 62 45 48 45 42 39 35 41 65 12 347 50 8 10 328 176 138 118 105 101 72 81 77 61 59 57 51 40 40 38 28 20 18 41 62 36 22 8 10 7 1 358 354 359 4 18 22 36 7 7 11 7 0 358 357 355 353 352 351 349 348 347 345 344 344 342 342 340 341 342 343 343 341 340 340 338
107 118 111 127 157 193 162 188 52 53 49 46 44 36 31 27 339 201 91 26 47 21 12 343 216 173 153 132 126 115 96 87 71 64 69 63 51 50 54 34 20 16 6 15 50 27 14 4 14 3 360 353 357 357 359 4 18 358 2 12 7 357 353 353 352 351 351 350 349 348 345 343 343 342 340 339 337 338 340 340 337 335 338 339 338
93 85 102 105 80 78 87 49 37 38 43 36 37 36 6 359 355 324 136 99 88 53 20 1 334 301 168 151 160 144 119 96 90 76 63 53 59 61 52 45 32 17 14 7 13 23 19 8 9 10 2 357 355 353 352 3 14 352 1 14 4 354 349 348 349 348 349 350 350 347 343 341 341 342 340 336 335 333 337 339 336 336 335 335 336
108 97 87 80 79 74 74 49 40 31 33 27 26 26 16 3 340 46 303 148 75 54 36 24 14 344 202 222 182 179 148 139 110 74 75 86 78 58 44 41 39 31 24 13 9 6 17 15 360 15 2 356 351 350 347 351 358 354 356 11 0 351 347 346 344 343 345 347 348 346 342 341 342 340 337 334 332 332 334 337 335 335 334 332 333
111 109 93 78 72 69 63 54 40 28 23 32 31 18 32 41 35 36 333 28 103 79 52 36 40 29 355 307 207 214 127 132 137 118 131 102 91 86 59 39 38 30 17 36 13 7 4 11 1 357 0 349 350 342 339 340 349 346 347 3 357 349 346 343 341 340 341 342 342 341 340 339 339 337 335 333 331 331 332 331 332 331 331 331 330
112 100 94 97 90 67 49 47 45 32 36 32 51 66 32 56 34 43 66 23 71 109 94 65 57 46 43 52 21 11 41 146 184 136 122 100 91 81 96 84 40 32 18 31 29 17 356 349 4 343 349 346 340 337 334 337 345 345 343 358 354 347 343 341 338 338 338 339 338 337 337 335 334 334 333 332 331 331 329 327 326 327 327 327 326
80 92 92 90 73 65 59 45 67 62 46 62 57 46 57 41 38 46 39 30 359 97 77 108 89 50 54 54 51 45 30 19 14 127 151 152 126 114 92 65 44 11 8 20 15 15 2 340 355 345 336 342 339 333 334 338 340 340 336 4 351 343 339 337 335 336 335 335 335 334 334 334 332 329 330 332 331 330 328 326 325 325 324 323 323
73 74 78 70 65 65 62 47 49 68 84 65 53 58 63 58 50 47 49 39 33 52 62 56 65 67 45 48 59 64 51 49 14 345 313 165 155 120 120 94 46 22 352 348 344 350 334 330 339 341 330 335 333 334 335 331 332 328 335 10 347 338 335 330 330 328 326 329 332 332 332 331 329 327 329 331 331 328 326 325 323 322 322 321 321
84 81 81 71 68 70 71 80 78 85 88 81 73 67 59 58 55 55 56 55 48 45 58 52 49 42 52 52 47 41 50 44 18 10 7 326 123 146 164 125 190 122 340 293 293 281 277 322 305 327 332 340 339 339 335 331 331 319 333 360 333 330 326 323 321 316 315 324 331 331 329 328 327 326 326 329 329 329 327 324 323 322 321 320 321
92 83 71 71 74 80 85 83 73 65 70 79 78 73 67 63 61 65 69 72 59 55 58 62 57 46 40 34 38 39 49 43 31 13 34 17 20 41 3 219 191 131 43 285 261 282 331 347 333 350 338 333 343 337 333 332 329 322 340 334 318 323 321 317 313 305 310 324 330 331 329 328 329 327 328 327 328 329 327 323 323 321 321 321 320
94 76 75 81 88 90 98 90 87 92 86 83 79 81 85 82 78 73 70 71 71 71 68 63 62 54 50 47 49 42 36 39 24 18 0 6 345 65 201 34 312 149 172 251 283 340 357 355 349 344 343 354 342 338 333 329 319 352 329 311 318 316 316 309 302 301 319 327 327 330 329 331 330 330 329 329 328 328 325 324 322 323 322 321 317
91 94 91 91 99 106 108 108 101 97 89 86 87 88 92 95 86 79 74 69 68 67 64 63 62 66 58 55 54 48 42 33 25 19 10 11 332 1 26 339 310 69 116 202 214 12 7 6 353 357 3 357 346 343 343 336 336 341 330 324 317 310 304 308 304 326 329 317 322 325 325 325 325 324 324 326 328 325 323 322 324 323 320 318 319
116 116 116 125 130 134 126 113 104 92 91 87 84 87 89 89 83 77 72 72 67 66 65 60 61 66 65 55 54 52 49 40 31 23 22 8 12 356 15 49 340 7 124 146 22 36 8 14 350 15 358 357 348 352 347 339 333 341 337 326 315 311 308 326 352 328 310 316 316 313 313 312 315 317 320 322 324 324 322 321 320 318 317 318 317
145 131 141 153 146 127 117 100 98 95 89 85 89 96 94 91 89 85 83 80 78 74 71 71 67 61 58 62 55 54 50 39 33 35 31 26 24 10 337 328 2 359 34 35 64 11 12 10 3 11 2 357 351 349 344 335 331 340 337 319 325 328 355 32 333 322 316 311 302 299 296 296 301 310 313 314 313 319 320 318 316 315 316 316 313
148 136 146 138 130 128 119 108 99 97 96 102 102 99 96 93 90 88 84 78 77 79 76 72 67 63 61 63 61 54 51 44 37 34 36 32 25 11 2 354 18 45 357 42 13 37 8 0 358 12 0 354 353 345 339 333 326 342 330 328 330 331 43 354 335 315 310 303 295 290 292 295 301 302 307 303 308 317 319 316 316 314 314 312 311
140 138 132 140 137 132 117 109 107 106 112 114 112 101 99 97 94 95 91 89 91 90 86 76 73 71 69 67 67 59 48 39 40 35 30 28 29 24 16 16 359 12 3 35 25 8 18 357 356 12 356 352 351 342 330 329 333 349 330 331 338 332 3 337 313 313 303 292 285 292 306 311 304 304 301 310 320 323 321 318 316 314 312 312 311
134 133 137 138 135 126 119 115 118 120 118 114 109 108 104 102 100 96 95 92 86 79 77 77 78 74 70 65 66 64 51 46 39 35 34 29 31 28 26 23 360 1 0 358 35 355 5 0 353 354 352 351 346 339 334 333 346 347 331 335 335 336 350 320 314 296 301 298 307 321 315 306 305 308 316 320 323 324 322 320 316 313 311 311 310
138 139 137 139 135 134 127 126 123 123 120 117 113 111 110 106 104 99 100 102 94 89 84 84 80 77 75 74 72 64 48 50 53 39 28 20 32 29 24 29 19 13 2 353 2 16 349 353 355 341 344 348 343 335 332 333 343 338 333 335 332 344 339 302 305 334 344 351 345 328 317 306 306 315 315 317 320 321 321 318 317 314 313 311 311
140 141 145 142 139 134 130 127 126 122 118 117 119 115 113 110 110 110 108 104 100 97 99 101 101 96 93 89 84 78 72 57 52 50 40 23 12 38 33 27 32 14 356 346 337 18 353 341 342 336 339 343 338 333 335 335 339 337 338 333 334 345 331 329 328 352 11 16 353 332 323 322 318 316 311 310 313 314 316 318 313 310 308 307 303
146 150 144 141 138 136 134 130 129 126 127 126 123 122 118 117 118 115 109 112 112 110 109 109 109 110 105 90 65 69 66 85 64 42 69 56 26 19 24 29 29 11 357 340 341 338 351 339 330 331 338 337 336 336 336 337 338 341 337 333 336 338 339 333 339 330 28 359 349 342 331 324 313 322 312 310 311 309 312 309 305 299 296 294 292
147 149 145 142 141 139 137 138 133 133 132 132 128 124 122 120 115 118 126 120 118 115 115 117 118 112 102 97 95 80 54 44 56 76 40 53 74 49 27 21 26 14 1 348 341 333 333 337 329 334 333 341 335 341 339 339 338 339 335 336 340 341 339 336 328 353 11 357 339 333 329 321 321 323 318 311 306 305 303 300 294 291 288 287 288
153 147 146 141 140 143 141 138 138 137 137 132 132 126 123 122 122 123 123 124 119 127 129 112 104 102 96 93 92 76 59 48 23 35 29 30 36 33 42 13 22 4 3 346 339 327 326 329 332 330 336 345 331 342 342 341 337 335 334 340 339 339 335 337 338 327 341 335 331 330 331 333 329 323 314 309 301 303 301 298 295 292 289 290 288
148 151 143 147 146 143 141 139 140 140 137 133 129 128 127 130 129 128 126 122 126 130 135 132 123 119 116 111 97 87 75 73 60 47 27 23 28 32 15 14 8 1 350 341 327 328 326 324 330 332 343 339 338 340 342 343 337 334 333 338 340 335 333 339 336 332 339 334 332 340 341 337 329 321 316 313 313 303 301 302 306 304 303 292 288
150 147 150 148 146 145 143 141 141 141 136 134 135 136 137 134 134 131 128 134 140 137 130 132 131 121 115 112 104 96 87 62 36 58 37 19 45 32 3 358 357 6 340 322 325 321 319 317 332 331 338 335 339 337 340 340 339 334 333 332 334 333 335 339 335 333 337 338 344 343 339 335 330 327 326 325 316 308 309 317 315 309 297 291 287
149 150 152 148 147 146 145 145 144 142 140 141 140 137 134 139 134 133 139 138 138 134 118 115 119 117 109 99 96 90 73 64 49 30 43 20 22 35 8 354 352 356 334 328 327 323 320 320 323 332 336 338 339 337 341 340 339 334 334 334 336 335 335 333 332 332 329 341 342 340 339 334 330 328 329 337 328 324 322 310 305 304 299 305 318
152 156 152 152 151 149 152 147 145 144 143 144 142 142 142 139 137 138 132 135 132 129 136 133 121 118 116 99 92 83 70 62 45 32 17 19 13 23 13 353 351 346 331 329 328 328 323 325 327 333 338 341 341 343 343 342 338 335 335 334 331 334 334 333 332 329 338 343 338 340 336 334 331 330 343 336 331 340 335 328 319 309 323 27 355
157 157 155 152 153 155 150 148 148 147 145 148 145 146 143 143 140 138 140 139 137 138 137 128 127 126 115 102 91 75 65 57 49 30 13 10 10 20 9 355 351 341 335 340 333 334 335 331 335 342 337 344 345 341 343 341 338 336 337 333 334 337 336 336 332 333 335 333 336 337 334 332 336 340 335 333 342 345 330 322 327 347 25 352 341
161 159 158 153 154 155 147 151 146 146 148 152 152 151 148 144 145 145 144 144 140 142 136 132 129 123 116 104 85 74 67 52 40 38 22 5 356 17 9 358 350 345 344 340 343 342 341 340 344 345 344 341 345 342 336 339 337 337 341 335 332 335 338 334 335 332 333 336 338 343 343 348 347 341 341 345 345 338 334 339 345 357 356 349 336
164 162 156 155 158 152 150 150 148 149 155 154 158 159 149 149 149 150 149 148 148 148 144 142 140 129 115 98 87 85 81 94 74 56 34 354 353 11 9 4 355 354 348 345 349 348 344 341 348 347 342 345 346 343 341 345 343 337 332 334 329 331 330 330 330 333 334 335 337 341 347 349 340 346 344 340 343 341 341 340 346 356 344 332 329
166 162 160 159 160 155 156 153 151 154 156 155 72 80 134 154 152 149 149 149 157 153 155 150 148 136 120 108 107 125 157 179 174 167 177 197 313 340 9 11 5 0 353 348 349 351 345 342 353 345 346 345 345 343 340 340 333 330 329 333 332 332 331 330 325 333 341 342 342 341 345 351 350 344 342 343 345 342 341 342 353 343 341 340 335
167 163 163 162 162 160 160 156 154 158 159 107 90 74 59 122 148 147 152 158 158 157 157 160 154 150 144 137 148 175 194 195 202 202 193 204 203 216 243 274 306 345 1 349 346 348 346 342 344 348 344 342 342 338 342 338 334 332 330 331 330 332 335 336 334 332 345 345 341 339 342 351 351 344 344 345 343 342 344 341 344 346 342 332 327
168 166 166 167 164 161 162 157 155 161 135 106 99 93 84 63 24 144 155 155 161 164 172 165 164 159 150 149 143 143 168 168 220 188 202 205 211 209 209 212 223 256 273 306 337 342 345 336 338 343 340 345 333 339 341 336 333 328 331 330 332 331 331 332 331 333 337 338 341 349 337 342 346 347 343 343 343 345 342 341 343 339 340 340 336
167 169 171 168 165 163 162 159 158 158 129 121 109 109 98 27 344 328 159 156 168 173 172 175 166 162 158 157 163 172 138 202 253 342 209 193 212 221 211 207 226 233 251 268 260 264 312 319 331 329 345 337 332 337 336 328 328 326 328 329 330 325 328 326 326 324 335 348 2 351 340 344 347 348 344 343 345 347 345 344 335 341 347 343 339
171 170 172 169 167 165 166 159 149 138 120 124 124 124 137 239 322 344 175 164 163 165 167 162 170 162 164 167 169 170 151 121 53 358 333 317 258 216 207 206 217 216 227 240 249 252 255 270 316 329 331 333 327 325 321 321 325 330 328 324 323 324 329 326 320 330 334 344 2 352 336 343 351 349 347 346 347 345 351 345 344 349 349 344 340
173 173 172 171 168 165 159 148 127 119 143 151 144 152 172 227 280 313 221 154 154 157 165 173 169 160 169 173 153 144 132 85 55 9 334 327 306 300 325 349 310 198 199 208 242 304 313 308 325 321 315 312 311 306 309 310 314 316 319 316 316 323 323 318 324 339 338 354 10 357 342 334 348 347 352 348 342 344 344 345 346 342 344 346 344
173 171 171 170 164 161 159 153 153 158 148 154 147 164 181 215 245 254 214 165 167 163 170 175 166 168 171 177 173 149 125 100 96 356 332 320 293 294 338 323 302 262 41 166 230 232 248 291 304 301 293 287 276 279 282 289 292 291 302 311 318 329 327 334 338 342 343 350 17 359 339 338 355 354 348 344 343 339 350 345 342 343 348 350 347
173 171 167 165 162 165 162 161 164 163 157 168 161 173 188 205 222 241 200 179 172 170 173 181 180 164 179 183 189 160 143 110 92 336 324 315 289 318 330 310 293 349 15 353 207 227 243 247 252 254 259 262 267 268 269 269 262 270 287 315 335 333 334 336 339 340 343 345 13 359 335 336 352 355 345 342 340 337 344 348 348 352 352 350 346
165 165 164 164 171 174 170 171 174 171 168 172 172 176 191 201 221 228 212 188 171 179 172 186 184 166 87 48 346 263 148 115 120 315 312 312 290 37 307 337 335 6 5 346 334 281 218 232 241 245 248 255 259 262 260 260 265 265 307 333 331 332 334 335 334 339 334 343 7 359 342 349 338 354 352 342 336 339 337 351 351 347 349 349 348
167 164 167 172 176 178 178 182 185 184 168 169 179 179 190 198 213 234 240 193 176 187 177 189 194 154 145 152 60 14 78 114 121 266 302 315 312 50 327 338 347 5 1 337 328 325 327 324 323 314 301 270 281 317 350 327 298 295 340 330 330 336 335 332 332 334 332 343 2 358 346 347 342 351 352 347 345 334 348 350 344 342 352 355 348